Theta_e
321 316 320 325 324 319 319 318 319 319 318 316 316 317 316 315 314 315 316 316 315 316 322 328 329 329 330 331 332 333 333 335 336 340 345 343 343 344 346 344 344 346 345
326 320 319 323 323 320 319 319 320 320 321 320 321 324 324 324 325 324 322 322 322 323 328 329 329 329 329 330 331 332 333 334 337 334 342 343 343 343 345 344 343 343 345
326 326 318 322 323 321 320 321 321 323 322 322 324 325 327 329 330 331 331 332 332 331 331 331 331 329 329 329 330 331 332 333 335 334 338 341 342 343 344 343 343 343 344
326 330 318 320 323 322 321 321 322 324 324 324 325 329 329 329 330 332 332 332 333 333 334 334 333 332 330 330 329 331 332 333 334 336 335 337 340 343 344 344 342 343 344
327 330 324 321 324 322 322 321 323 326 327 330 334 333 333 332 333 334 333 333 333 333 335 334 334 334 333 331 330 329 329 332 333 334 333 333 338 340 344 344 345 344 344
330 332 327 323 323 322 322 322 324 327 328 329 335 336 336 337 336 334 333 333 334 334 333 332 334 336 335 334 332 330 331 331 334 332 332 328 335 339 343 344 343 344 343
334 333 328 324 323 322 322 323 325 326 326 329 335 336 338 336 336 335 335 332 333 333 332 332 332 332 335 335 334 332 330 335 333 329 330 325 332 336 340 343 342 342 342
333 332 327 324 323 324 324 325 326 325 324 325 333 335 337 337 335 334 334 334 333 333 331 330 331 331 332 334 333 332 332 335 333 331 330 325 329 335 338 341 341 341 342
332 330 327 325 325 326 326 327 326 323 322 321 324 327 329 327 325 328 329 330 331 331 331 331 331 331 331 333 334 331 331 333 334 330 328 328 327 335 338 340 340 339 342
330 329 327 327 328 328 329 329 327 323 321 321 323 324 323 325 324 326 327 327 328 328 328 329 330 330 331 331 331 331 332 331 331 333 328 327 326 333 338 340 342 339 341
332 330 329 329 330 329 330 330 327 323 322 323 325 324 326 325 324 323 323 322 324 328 329 329 328 328 329 331 331 332 332 331 328 329 330 328 326 329 337 340 342 340 341
334 333 332 332 332 330 330 329 326 324 324 324 325 325 326 326 324 323 323 322 327 328 329 330 331 330 330 330 329 331 331 330 326 324 326 328 327 327 338 340 341 341 340
332 334 334 335 333 331 329 326 327 325 324 326 326 327 327 326 324 323 324 323 323 323 324 324 323 327 329 330 329 329 330 329 323 320 324 327 327 328 338 340 341 341 340
330 332 335 338 333 330 327 326 324 324 325 326 327 327 328 326 325 324 325 323 323 323 324 324 324 325 328 329 329 329 329 328 324 320 325 327 327 329 337 340 341 341 340
326 329 333 333 332 329 327 325 324 324 326 327 327 327 326 326 324 325 325 325 323 325 325 325 324 324 327 328 328 328 328 327 321 321 326 326 326 332 334 337 341 341 340
322 323 326 331 330 328 324 324 322 325 326 326 327 327 327 327 326 326 325 326 324 323 325 324 323 324 325 326 328 328 327 325 322 324 326 327 326 333 332 334 341 340 341
320 320 323 329 327 323 324 321 324 326 327 328 328 328 328 328 328 327 325 326 324 323 324 324 323 324 324 326 326 326 326 325 322 324 324 327 328 333 331 332 336 341 341
320 320 323 326 323 324 323 323 326 327 328 328 328 329 329 329 328 327 326 326 324 323 323 323 323 323 324 325 326 325 324 324 323 323 324 327 328 331 332 330 336 339 339
320 320 324 323 324 324 323 325 327 328 328 328 329 329 329 329 328 328 327 326 324 322 324 323 323 322 323 324 324 324 323 324 323 323 327 328 330 330 330 332 336 335 338
320 321 322 324 324 325 325 326 328 327 328 329 329 329 330 330 329 328 326 324 321 323 323 323 322 322 323 323 324 324 324 325 324 324 327 329 329 330 329 330 333 334 335
321 322 324 325 326 326 326 328 327 329 328 328 328 329 329 329 328 327 324 321 320 324 323 322 322 321 323 323 324 324 326 327 327 327 328 329 329 329 329 332 333 335 338
322 324 325 325 326 326 328 327 328 329 328 328 328 329 329 328 328 327 325 322 325 324 323 322 321 322 322 323 323 323 326 326 327 327 328 329 330 330 330 333 335 335 335
322 324 325 326 327 327 328 326 328 328 328 328 327 328 328 327 326 326 326 324 325 324 322 322 322 322 322 323 325 324 327 328 327 328 329 330 331 331 334 333 335 334 333
322 325 326 326 327 328 327 327 327 328 328 327 327 327 327 325 325 325 325 325 325 323 322 321 322 323 323 324 325 326 326 326 329 330 328 328 330 332 335 333 332 331 329
324 326 326 327 327 327 327 328 329 329 327 327 326 326 326 325 325 325 324 324 323 323 323 322 322 323 324 325 325 326 327 327 328 330 330 330 331 332 332 333 331 329 330
325 326 327 327 328 327 328 329 329 327 326 326 326 326 325 325 326 325 324 324 324 325 324 323 322 323 324 325 326 326 326 327 328 329 330 330 330 331 331 332 331 331 329
Wind_Speed
36 30 33 29 25 21 17 15 13 12 10 9 8 7 6 6 5 5 5 6 6 6 5 4 4 6 6 5 5 5 6 6 6 7 8 8 11 8 10 10 13 16 17
36 28 36 31 26 22 20 17 15 14 13 11 10 9 8 7 6 7 7 7 7 8 6 6 6 7 7 7 7 5 5 5 6 8 8 9 12 14 10 12 14 15 18
34 27 38 32 27 24 22 19 17 16 16 15 13 12 11 11 11 10 10 9 9 10 9 7 7 8 8 8 8 7 7 6 6 8 7 10 8 15 14 14 15 17 20
34 28 38 34 29 26 24 21 19 18 18 17 16 15 14 14 14 13 12 12 12 12 11 10 10 9 10 9 10 9 8 8 7 7 8 9 7 12 16 17 18 21 22
31 30 34 35 30 27 25 22 21 19 18 18 17 16 16 16 16 18 13 14 15 15 14 12 12 12 11 11 11 11 11 10 8 7 10 9 8 11 14 14 19 22 20
29 33 32 35 31 28 26 23 20 19 18 18 17 17 18 18 18 17 16 18 18 17 16 15 15 14 13 12 13 13 12 11 9 10 10 10 8 11 13 16 15 20 22
31 34 33 33 31 29 26 23 21 18 17 16 17 17 18 17 17 18 18 20 18 18 18 17 17 18 17 15 13 14 15 12 11 12 11 11 10 11 14 17 16 19 22
31 33 33 33 30 28 26 23 20 17 15 14 14 16 16 15 16 18 18 17 18 18 18 19 19 20 20 17 14 16 15 12 11 12 12 12 11 11 14 17 18 18 21
31 32 33 32 30 28 26 23 20 17 15 12 14 15 14 14 16 16 17 17 18 18 19 20 21 21 19 16 16 16 16 13 12 14 14 14 12 12 13 16 19 20 22
30 32 34 33 31 29 27 24 20 17 15 13 13 12 12 12 13 13 13 13 14 17 19 20 22 22 21 17 18 16 16 14 12 14 15 16 15 14 15 16 20 21 23
28 31 33 33 31 29 27 23 19 17 15 15 13 12 12 11 11 11 12 12 11 11 13 16 19 22 22 19 17 18 16 16 15 15 16 16 16 16 16 17 20 23 23
32 33 34 34 32 29 26 22 19 16 15 16 16 14 14 13 12 12 12 11 12 13 13 16 15 18 18 20 21 20 19 17 16 17 16 16 16 16 16 17 20 24 26
39 36 37 35 32 29 26 22 18 15 16 17 17 17 17 16 14 13 13 13 13 13 13 13 13 12 17 19 21 21 20 17 18 17 17 17 16 16 16 16 19 25 28
36 40 37 34 31 28 23 21 16 16 16 18 18 18 19 18 17 16 14 12 12 10 11 10 10 10 14 16 19 21 22 19 18 17 16 16 16 16 15 16 19 25 30
35 36 35 34 31 27 22 19 16 14 17 16 16 16 18 18 17 16 15 13 13 12 11 10 9 9 11 14 17 19 21 19 19 17 16 17 16 16 16 16 19 24 29
36 35 31 31 29 25 22 18 14 14 14 14 15 16 17 17 17 17 16 15 13 12 11 10 10 9 11 13 16 18 18 16 16 15 14 16 16 15 15 15 21 23 28
35 29 30 32 29 24 20 15 14 14 13 16 16 16 17 17 17 17 17 16 14 11 11 11 10 9 10 12 15 16 16 13 14 15 13 13 13 14 14 15 19 24 33
29 27 31 32 28 22 17 15 15 13 12 16 16 16 16 16 16 16 15 15 13 11 11 12 10 10 10 11 14 15 15 12 12 13 13 10 12 11 11 14 13 18 20
29 29 35 32 27 22 17 16 13 11 11 12 12 13 13 14 15 15 14 13 12 11 11 11 10 11 11 11 13 14 13 13 13 12 10 8 8 8 9 11 12 11 13
26 33 36 30 25 21 16 14 12 10 9 9 10 10 10 12 13 14 13 12 12 11 10 11 11 10 10 11 10 10 11 11 11 10 10 9 9 9 9 12 10 11 17
30 36 35 29 24 21 18 13 10 6 7 8 8 8 8 9 10 12 11 11 11 12 10 11 11 13 11 8 7 4 3 3 5 6 8 7 9 9 8 9 14 15 20
38 39 32 27 24 21 17 11 4 4 5 6 7 6 7 6 7 10 9 9 9 11 10 10 12 12 9 10 4 5 1 2 3 4 4 4 6 6 8 10 14 25 31
31 36 31 26 23 19 12 7 4 3 4 6 5 4 5 4 4 7 9 9 8 9 9 11 14 12 8 9 6 4 2 2 2 3 3 2 4 2 7 15 20 29 34
27 33 28 24 21 16 11 6 4 2 2 3 2 3 2 1 1 3 7 8 8 8 8 11 13 11 11 9 9 7 3 5 2 2 4 4 2 6 13 23 29 30 35
33 30 26 23 19 15 11 6 4 1 3 2 1 1 3 2 3 3 4 6 6 7 7 10 12 13 11 12 13 9 3 0 5 3 3 3 9 9 16 22 28 31 25
29 26 24 21 18 14 11 7 3 2 3 3 2 3 3 4 5 4 6 5 4 4 6 9 11 13 12 8 12 14 9 4 5 3 3 4 6 9 16 22 31 28 38
Wind_Direction
194 190 191 187 188 190 189 192 193 192 193 199 207 211 212 217 227 254 270 277 281 285 280 275 264 256 257 263 266 271 269 274 272 282 278 248 228 221 224 209 187 175 166
185 189 193 192 193 192 198 201 202 202 202 207 211 217 226 231 238 253 263 272 278 278 273 267 256 252 249 256 260 267 271 281 284 273 291 272 234 224 220 213 201 187 178
180 185 192 197 196 199 202 207 209 208 209 212 215 219 224 229 232 236 241 252 262 268 274 269 263 254 249 246 254 258 268 273 280 275 296 280 255 231 225 218 211 203 186
181 183 192 198 199 202 205 209 213 214 216 219 221 220 222 226 235 237 240 249 254 259 262 266 263 259 252 248 247 251 261 264 271 276 275 282 248 229 224 218 214 207 192
186 192 195 198 199 203 206 211 212 217 221 221 219 222 228 232 232 233 239 251 254 256 255 260 261 260 254 247 246 249 253 260 264 267 257 266 259 236 229 222 221 209 194
188 195 197 199 199 203 206 211 214 218 224 230 225 231 240 236 240 245 243 246 249 254 261 261 260 255 253 249 245 242 245 249 251 252 259 257 257 239 231 229 222 213 186
190 196 197 198 204 203 207 211 215 220 228 237 231 235 243 251 249 248 249 250 248 249 255 260 261 261 256 248 244 244 244 249 240 251 259 251 255 243 232 231 227 217 209
191 194 197 199 205 207 207 209 213 218 223 235 238 242 247 249 256 257 257 256 254 254 258 260 258 260 261 250 249 245 243 245 232 245 252 250 251 247 238 230 229 221 210
195 195 197 201 204 211 211 208 211 212 218 230 240 244 247 252 259 262 263 260 259 258 257 258 258 258 259 250 243 242 242 238 239 239 246 250 247 246 244 232 229 223 214
198 200 201 203 204 208 211 210 210 211 216 229 236 236 243 259 262 270 267 262 258 256 255 257 260 259 255 250 242 238 240 237 238 242 245 250 246 248 242 235 228 225 215
203 206 205 204 204 206 209 210 212 214 224 229 233 236 250 255 275 271 265 269 269 262 255 254 255 254 254 250 239 233 234 238 239 243 246 251 248 251 249 239 229 223 216
207 209 208 206 204 201 204 207 213 217 232 231 231 243 255 260 276 265 263 263 262 262 265 260 270 247 247 241 234 231 227 235 241 244 250 255 253 252 252 240 233 222 214
211 212 209 206 204 201 200 205 213 223 235 235 237 247 249 249 264 253 259 254 259 255 265 267 271 254 240 237 232 228 227 238 240 245 252 256 258 255 251 244 234 219 213
212 213 209 203 202 202 202 204 215 233 237 239 245 251 245 247 256 249 252 256 255 252 259 265 267 256 238 234 228 224 226 239 247 248 255 258 258 255 252 245 232 216 209
213 212 207 201 201 199 201 204 218 227 234 242 246 243 241 250 249 247 252 253 249 256 255 255 259 253 239 230 223 222 231 243 245 249 256 262 256 256 252 244 231 216 206
216 215 206 201 197 196 197 209 214 222 233 239 243 245 246 251 249 250 254 251 248 253 250 257 265 256 241 227 220 225 233 242 245 248 264 261 249 255 253 254 239 221 205
214 208 199 194 189 189 199 204 208 219 232 243 250 252 250 250 250 253 256 249 244 250 247 251 251 249 241 226 224 224 231 244 246 248 267 264 247 253 257 267 252 221 197
206 197 190 183 182 190 195 198 210 224 243 256 259 259 259 254 248 246 247 241 243 250 246 242 253 248 240 227 225 226 238 249 252 257 268 242 253 252 259 271 243 235 198
198 187 182 180 182 189 191 202 215 233 251 267 268 267 261 251 246 242 245 245 244 250 242 245 250 242 237 227 227 237 242 251 251 259 240 248 233 250 270 263 232 223 208
185 181 177 178 184 188 195 208 222 242 254 279 286 278 264 246 244 244 242 242 241 244 238 234 233 226 226 223 222 232 245 246 246 247 240 246 233 240 258 264 251 224 203
174 173 175 177 185 189 196 204 224 238 259 291 293 272 259 252 245 241 241 239 230 237 239 235 225 210 206 186 170 158 172 190 223 234 234 238 238 240 252 253 246 210 165
171 174 173 179 185 189 194 202 217 255 274 289 297 280 257 265 247 240 233 226 232 225 231 222 199 187 196 188 145 132 92 71 131 215 233 220 228 231 245 210 202 172 156
162 170 169 176 183 186 191 196 201 235 278 289 300 296 272 264 260 243 227 222 225 228 225 207 193 190 161 179 177 144 132 182 131 64 108 125 160 184 177 186 179 156 158
159 167 169 174 179 183 183 186 196 221 284 272 299 296 244 177 185 217 212 219 230 217 214 200 192 191 187 166 188 202 157 152 146 140 93 146 175 191 158 167 164 156 154
163 166 169 172 177 178 177 189 194 256 265 255 252 237 190 170 171 195 198 189 192 209 213 197 199 196 194 189 180 196 200 171 109 126 135 143 147 171 174 159 160 166 167
164 164 169 172 176 180 185 194 202 249 233 226 252 255 248 219 188 170 162 160 168 199 190 194 204 207 208 207 203 204 199 131 161 141 130 139 133 120 138 146 161 151 147